Home > Weather > Uelzen > Past weeks

Flag for Germany Past Weather in Uelzen, Lower Saxony, Germany — Yesterday and Last 2 Weeks

Now
72 °F

Partly sunny.


Feels Like: 75 °F
Forecast: 62 / 74 °F
Wind: 6 mph from Southwest

Location: Fassberg

Current Time: Jul 28, 2016 at 6:36:02 PM

Latest Report: Jul 28, 2016 at 5:20 PM


Visibility: N/A

Pressure: 29.95 "Hg

Humidity: 65%

Dew Point: 59 °F

Location of UelzenLocation

Past Weather in Uelzen — Graph

°F

Uelzen Temperature Yesterday

Maximum temperature yesterday: 75 °F (at 4:20 PM)
Minimum temperature yesterday: 59 °F (at 5:20 AM)
Average temperature yesterday: 66 °F

High & Low Weather Summary for the Past Weeks

 TemperatureHumidityPressure
High88 °F (Jul 21, 4:20 PM)100% (Jul 17, 6:20 AM)30.24 "Hg (Jul 17, 6:20 AM)
Low45 °F (Jul 16, 3:20 AM)36% (Jul 26, 4:20 PM)29.89 "Hg (Jul 13, 4:00 PM)
Average67 °F74%30.06 "Hg
* Reported Jul 13 4:00 PM — Jul 28 4:20 PM, Uelzen, Weather by CustomWeather, © 2016

Note: Actual official high and low records may vary slightly from our data, if they occured in-between our weather recording intervals... More about our weather records

Advertising

Uelzen Weather History for the Previous 24 Hours

Scroll right to see more
 ConditionsComfort  
Time TempWeatherWind HumidityBarometerVisibility
4:20 PM
Thu, Jul 28
72 °FBroken clouds.7 mph65%29.95 "HgN/A
3:20 PM72 °FBroken clouds.9 mph61%29.98 "HgN/A
2:20 PM72 °FPartly sunny.5 mph61%29.98 "HgN/A
1:20 PM72 °FPartly sunny.9 mph57%29.98 "HgN/A
12:20 PM70 °FBroken clouds.3 mph64%30.01 "HgN/A
11:20 AM66 °FBroken clouds.6 mph73%30.01 "HgN/A
10:20 AM64 °FBroken clouds.5 mph78%30.01 "HgN/A
9:20 AM63 °FPartly sunny.6 mph88%30.01 "HgN/A
8:50 AM63 °FBroken clouds.3 mph88%30.01 "HgN/A
8:20 AM61 °FBroken clouds.3 mph94%29.98 "HgN/A
7:50 AM61 °FDrizzle. Broken clouds.5 mph88%29.98 "Hg4 mi
7:20 AM63 °FDrizzle. Partly sunny.8 mph94%29.98 "Hg2 mi
6:45 AM64 °FDrizzle. Partly sunny.9 mph83%29.98 "Hg2 mi
6:20 AM63 °FPassing clouds.7 mph88%29.98 "HgN/A
5:20 AM63 °FPassing clouds.5 mph88%29.98 "HgN/A
4:20 AM64 °FPassing clouds.7 mph83%29.98 "HgN/A
3:20 AM64 °FPassing clouds.8 mph78%29.98 "HgN/A
2:20 AM63 °FPassing clouds.5 mph83%29.98 "HgN/A
1:20 AM63 °FPassing clouds.5 mph77%29.98 "HgN/A
12:20 AM64 °FPassing clouds.3 mph73%29.98 "HgN/A
11:20 PM
Wed, Jul 27
64 °FPassing clouds.7 mph73%29.98 "HgN/A
10:20 PM66 °FPassing clouds.7 mph68%29.98 "HgN/A
9:20 PM68 °FBroken clouds.5 mph69%29.95 "HgN/A
8:20 PM72 °FPartly sunny.7 mph61%29.95 "HgN/A
7:20 PM72 °FBroken clouds.7 mph61%29.95 "HgN/A
6:20 PM73 °FBroken clouds.8 mph57%29.95 "HgN/A
Weather by CustomWeather, © 2016

See weather overviewHow to use our weather pages